This demonstration page uses our WeatherBlox Daily Observations layout. Learn more.

Left ArrowRight Arrow

39.01783, -85.05884

Hourly Observations for June 26, 2018

Temp ( °F °C ) Dew Point ( °F °C ) Humidity (%) Winds ( mph kmh ) Pressure ( in mb ) Visibility ( mi km ) Precip ( " mm )
12:13 am 00:13 Mostly Cloudy 70 21.1 65 18.3 84 84 ESE 8 13 30.06 1018 10 16 N/A
12:41 am 00:41 Mostly Cloudy 70 21.1 65 18.3 84 84 ESE 7 11 30.09 1019 10 16 N/A
12:52 am 00:52 Cloudy 71 21.7 65 18.3 81 81 ESE 6 9 30.09 1019 10 16 N/A
1:24 am 01:24 Cloudy 71 21.7 64 17.8 79 79 ESE 8 13 30.09 1019 10 16 N/A
1:52 am 01:52 Mostly Cloudy 71 21.7 64 17.8 79 79 ESE 10 17 30.07 1018 10 16 N/A
2:52 am 02:52 Partly Cloudy 70 21.1 64 17.8 82 82 ESE 10 17 30.06 1018 10 16 N/A
3:52 am 03:52 Mostly Cloudy 69 20.6 64 17.8 84 84 ESE 9 15 30.05 1018 10 16 N/A
4:52 am 04:52 Mostly Cloudy 69 20.6 64 17.8 84 84 ESE 7 11 30.04 1017 10 16 N/A
5:52 am 05:52 Mostly Cloudy 69 20.6 64 17.8 84 84 ESE 8 13 30.04 1017 10 16 N/A
6:21 am 06:21 Mostly Cloudy 68 20 64 17.8 87 87 SE 10 17 30.03 1017 10 16 N/A
6:52 am 06:52 Mostly Cloudy 68 20 65 18.3 90 90 SE 9 15 30.04 1017 8 13 N/A
7:43 am 07:43 Cloudy with Rain 69 20.6 66 18.9 90 90 SSE 9 15 30.06 1018 3 4 0.02 0.51
7:52 am 07:52 Cloudy with Light Rain 68 20 66 18.9 93 93 SE 8 13 30.05 1018 3 5 0.11 2.79
8:02 am 08:02 Cloudy with Mist and Fog 68 20 66 18.9 93 93 SE 7 11 30.06 1018 3 5 N/A
8:25 am 08:25 Cloudy with Mist and Fog 69 20.6 67 19.4 93 93 ESE 7 11 30.06 1018 1 1 N/A
8:52 am 08:52 Cloudy with Mist and Fog 69 20.6 67 19.4 93 93 ESE 7 11 30.04 1017 1 1 N/A
9:25 am 09:25 Cloudy with Mist and Fog 70 21.1 68 20 93 93 ESE 7 11 30.03 1017 2 3 N/A
9:52 am 09:52 Cloudy with Mist and Fog 71 21.7 68 20 90 90 ESE 9 15 30.03 1017 2 3 N/A
9:57 am 09:57 Cloudy 71 21.7 68 20 90 90 SE 8 13 30.03 1017 7 11 N/A
10:52 am 10:52 Cloudy 75 23.9 70 21.1 84 84 SE 9 15 30.03 1017 10 16 N/A
11:52 am 11:52 Cloudy 75 23.9 70 21.1 84 84 SE 6 9 30.04 1017 10 16 N/A
12:10 pm 12:10 Cloudy 76 24.4 70 21.1 82 82 SSE 5 7 30.03 1017 10 16 N/A
12:52 pm 12:52 Cloudy 77 25 71 21.7 82 82 SSE 7 11 30.04 1017 10 16 N/A
1:28 pm 13:28 Cloudy with Nearby Thunderstorms 78 25.6 71 21.7 79 79 E 5 7 30.00 1016 10 16 N/A
1:52 pm 13:52 Cloudy with Light Rain 78 25.6 71 21.7 79 79 NE 3 6 30.01 1016 10 16 N/A
2:11 pm 14:11 Cloudy with Light Rain 71 21.7 66 18.9 84 84 NNW 15 24 30.00 1016 9 14 0.01 0.25
2:36 pm 14:36 Cloudy with Strong Thunderstorms 70 21.1 67 19.4 90 90 NW 6 9 30.03 1017 1 1 0.09 2.29
2:52 pm 14:52 Cloudy with Strong Thunderstorms 69 20.6 67 19.4 93 93 N 13 20 30.03 1017 1 2 0.82 20.83
3:04 pm 15:04 Cloudy with Thunderstorms 69 20.6 68 20 96 96 NW 13 20 30.03 1017 4 6 0.07 1.78
3:17 pm 15:17 Cloudy with Thunderstorms 69 20.6 68 20 96 96 WNW 21 33 30.09 1019 3 4 0.10 2.54
3:39 pm 15:39 Cloudy with Thunderstorms 69 20.6 69 20.6 100 100 VRB 3 6 30.09 1019 3 4 0.31 7.87
3:52 pm 15:52 Cloudy with Thunderstorms 68 20 67 19.4 96 96 ENE 5 7 30.04 1017 4 6 0.34 8.64
4:49 pm 16:49 Mostly Cloudy with Light Rain 68 20 66 19 94 94 E 10 17 29.97 1015 10 16 0.09 2.29
4:52 pm 16:52 Cloudy with Light Rain 68 20 67 19.4 96 96 ESE 10 17 29.97 1015 10 16 0.09 2.29
5:52 pm 17:52 Mostly Cloudy 70 21.1 68 20 93 93 SE 14 22 29.94 1014 10 16 N/A
6:52 pm 18:52 Mostly Cloudy 70 21.1 66 18.9 87 87 S 13 20 29.93 1013 10 16 N/A
7:23 pm 19:23 Mostly Cloudy 70 21.1 66 18.9 87 87 S 16 26 29.91 1013 10 16 N/A
7:52 pm 19:52 Mostly Cloudy 70 21.1 66 18.9 87 87 S 12 19 29.93 1013 10 16 N/A
8:52 pm 20:52 Mostly Cloudy 69 20.6 66 18.9 90 90 S 8 13 29.93 1014 10 16 N/A
9:52 pm 21:52 Partly Cloudy 69 20.6 66 18.9 90 90 S 9 15 29.93 1014 10 16 N/A
10:52 pm 22:52 Cloudy 69 20.6 66 18.9 90 90 S 10 17 29.92 1013 10 16 N/A
11:52 pm 23:52 Cloudy 69 20.6 66 18.9 90 90 S 9 15 29.90 1013 10 16 N/A

Powered by AerisWeather